Dewpoint
11 11 10 7 6 1 -1 -4 -5 -1 0 -3 -1 5 3 1 -4 -1 9 9 3 8 9 8 3 3 7 10 9 7 0 -7 -9
11 11 10 9 6 1 -4 -4 -2 -2 -3 -2 -3 -5 -7 -8 -9 -8 -1 7 9 5 9 2 2 3 8 1 5 2 -5 -6 -9
12 11 8 4 -1 -4 -4 -3 -0 2 1 -1 0 -3 -4 -3 -5 -6 -4 4 6 4 -4 -6 -4 9 7 9 -4 -6 -6 -6 -7
10 8 -1 -4 -5 -5 -3 -1 -0 2 3 4 3 2 1 -0 -2 -4 -4 -4 6 6 -5 -7 -6 -3 2 10 9 3 -5 -5 -4
2 0 -3 -3 -3 -1 -0 1 1 2 2 2 3 6 5 4 2 1 1 1 -1 -1 -9 -13 -11 -7 -2 4 7 9 9 3 -1
10 8 2 -2 -1 0 1 2 3 3 3 5 8 9 7 7 6 6 7 7 5 4 2 -2 -10 -12 -10 -6 4 7 9 10 9
10 9 2 0 1 2 3 4 4 6 6 6 8 9 9 9 9 9 9 8 8 7 6 5 5 2 -6 -11 -8 -1 6 8 9
8 8 8 6 4 4 5 5 6 8 8 9 9 10 10 10 10 10 10 10 10 9 9 9 8 7 6 5 -1 -9 -7 3 5
9 9 9 9 9 8 9 10 10 11 11 11 11 11 11 11 11 10 10 10 10 10 10 10 10 10 10 9 7 6 3 -6 -2
10 10 10 10 10 11 11 11 11 11 11 11 11 11 10 10 10 10 10 10 10 10 10 10 10 10 11 11 11 11 9 9 6
11 10 11 12 12 11 11 11 11 11 11 11 10 9 9 9 9 9 9 9 9 9 9 10 10 10 10 11 10 11 11 11 10
11 11 11 11 11 11 10 10 10 9 9 8 7 8 8 3 3 4 4 6 8 9 9 9 8 8 8 9 10 10 10 10 11
11 11 11 11 10 9 9 8 7 4 4 3 4 4 4 3 2 0 2 6 7 7 8 8 9 8 8 8 8 8 6 8 8
11 11 8 5 5 3 0 -3 -2 -2 -3 -2 -1 -2 -1 -5 -3 1 3 6 7 7 7 5 3 3 4 7 9 9 9 7 6
4 -1 -4 -4 -3 -2 -2 -3 -4 -5 -5 -6 -7 -9 -9 -2 0 -1 2 2 2 4 4 5 -1 1 3 4 6 7 9 8 7
-5 -3 -2 -2 -4 -5 -6 -7 -8 -9 -12 -14 -11 -13 -6 -8 -7 -1 -7 -11 -13 -10 -6 -1 0 2 3 3 3 0 1 4 5
-2 -2 -4 -5 -5 -6 -8 -12 -14 -18 -18 -8 -11 -8 -9 -4 -16 -14 -18 -6 -4 -4 -11 -9 -8 -10 -11 -10 -16 -13 -9 -6 4
-3 -3 -3 -4 -6 -8 -13 -17 -22 -22 -22 -19 -11 -6 -5 -9 -9 -11 -9 -5 -15 -11 -11 -16 -17 -15 -9 -6 -6 -6 -3 1 4
-2 -3 -4 -6 -8 -12 -17 -22 -24 -25 -24 -24 -24 -20 -13 -5 -4 -6 -12 -13 -15 -15 -12 -11 -7 -5 -7 -10 -7 -2 1 1 2
-2 -3 -5 -7 -10 -15 -21 -23 -25 -26 -24 -21 -19 -21 -18 -17 -7 -5 -8 -9 -10 -10 -9 -6 -8 -6 -10 -6 -4 -5 -4 -5 -2
Wind_Speed
5 7 9 9 11 9 6 3 4 8 12 12 10 13 15 16 13 9 6 11 12 13 17 14 14 17 17 17 18 17 17 15 13
6 6 7 11 12 10 8 5 4 5 7 8 9 10 12 13 13 13 9 10 16 15 15 15 16 15 17 20 20 19 18 16 14
6 9 10 10 10 9 9 8 7 8 8 9 9 10 11 12 12 12 11 10 15 17 18 17 18 18 18 18 19 19 19 18 16
8 9 8 7 7 7 7 7 7 7 8 10 11 12 12 14 14 13 12 12 14 17 17 18 19 21 20 18 21 21 21 20 19
5 8 6 4 6 6 6 7 7 8 9 10 11 11 14 16 15 12 11 12 13 17 18 19 21 22 23 23 22 24 25 24 23
9 8 8 8 7 7 8 8 9 10 11 12 10 15 17 15 15 16 16 19 19 19 20 21 21 23 25 26 26 26 27 28 27
8 12 11 8 8 8 9 9 11 12 12 12 13 17 18 19 21 23 23 23 24 25 24 24 24 24 26 27 28 29 29 30 31
6 9 11 11 11 11 11 14 15 16 18 19 18 19 20 20 23 24 25 27 27 31 32 30 30 30 29 29 30 31 32 33 34
6 6 8 12 14 14 14 15 15 15 17 19 20 21 23 24 26 26 27 29 28 31 33 34 34 32 32 33 33 33 33 34 35
4 8 10 10 11 13 14 15 15 16 18 19 19 20 22 23 25 27 27 28 29 30 31 32 32 30 29 32 35 35 35 35 36
8 8 6 8 10 12 11 14 16 17 18 20 22 25 25 25 25 27 29 30 31 30 29 30 31 30 29 29 31 35 38 39 38
6 7 7 7 9 12 14 16 17 16 17 18 20 21 23 24 24 25 26 26 26 27 27 26 29 31 33 31 31 33 34 37 40
5 3 8 10 12 10 11 11 12 14 16 18 19 22 24 27 28 28 26 26 23 23 26 29 26 27 29 31 31 31 33 34 36
4 4 4 2 4 6 10 13 16 19 21 22 23 24 26 28 26 24 24 22 21 20 20 20 24 29 31 35 33 32 33 34 34
2 2 4 7 9 12 15 18 19 21 22 25 26 27 26 14 15 20 19 23 28 27 29 32 33 29 27 26 24 26 29 34 36
6 8 10 11 13 15 18 21 23 23 22 26 29 28 12 17 22 17 28 31 31 32 29 25 26 29 31 34 35 38 37 36 33
9 12 14 16 17 19 19 20 21 20 20 20 24 16 27 6 30 24 32 15 17 23 31 32 32 34 37 39 42 43 45 42 35
13 16 18 20 20 20 19 19 19 21 20 19 15 12 9 39 16 33 15 19 34 25 31 36 37 37 31 30 33 36 35 35 33
16 20 22 22 21 19 18 18 18 19 21 22 21 19 23 26 26 15 34 25 36 37 34 36 29 28 34 39 33 29 29 31 31
19 23 23 23 21 19 18 19 19 21 21 22 24 28 27 29 30 38 29 39 32 33 34 30 35 35 36 32 33 36 34 36 33
Wind_Direction
255 310 339 344 347 347 330 300 271 261 268 276 276 266 277 288 302 299 244 289 279 248 276 262 250 236 235 242 251 258 269 267 264
248 292 321 331 334 342 346 336 320 314 313 317 310 304 308 308 308 301 272 258 278 260 259 264 257 259 261 249 251 260 260 262 261
247 272 306 322 331 349 3 1 339 324 318 317 321 320 313 309 307 302 288 276 273 282 275 269 266 259 259 261 257 258 259 260 259
253 277 298 315 331 343 349 342 334 322 317 316 317 316 317 312 312 307 298 288 276 281 287 276 270 265 263 257 265 267 265 261 261
296 297 308 327 333 337 330 323 322 317 314 312 314 320 323 317 312 308 315 310 298 293 291 284 276 270 266 267 253 265 270 266 261
342 318 331 324 316 315 316 318 316 312 313 315 316 322 324 319 318 317 312 295 288 289 293 291 285 278 273 268 263 256 258 265 265
267 282 296 299 304 308 313 310 313 318 319 316 323 305 312 314 313 307 298 298 293 291 289 290 290 287 282 276 269 262 260 257 263
280 308 322 320 321 323 321 327 325 325 323 321 313 308 306 299 290 290 292 292 293 293 294 293 288 285 282 281 278 271 265 260 258
330 324 299 316 323 326 320 315 320 316 310 315 312 308 301 298 294 296 293 293 294 291 293 296 297 291 283 280 276 277 276 271 263
252 268 288 296 302 312 319 315 316 307 302 300 297 297 295 296 296 297 299 299 298 296 295 298 299 296 284 277 276 278 275 272 272
255 281 309 305 314 311 308 306 297 294 296 298 299 294 289 287 284 285 285 284 286 288 292 293 294 296 293 285 278 274 274 276 276
299 314 330 304 278 283 297 300 306 307 311 303 302 299 301 302 299 298 299 303 296 296 293 292 292 293 294 289 286 281 275 271 271
274 283 274 297 302 309 301 305 306 307 307 310 310 312 313 311 306 307 305 304 305 305 298 301 294 300 303 301 299 296 290 285 277
163 250 303 293 314 308 314 322 322 318 317 311 304 299 298 308 305 309 306 296 292 291 290 294 300 300 302 296 289 289 286 287 289
117 58 8 1 347 331 328 325 322 322 319 313 314 313 321 313 320 305 296 290 290 288 293 290 299 292 289 293 294 299 297 294 293
41 16 359 349 341 333 328 326 325 327 328 328 325 333 331 306 289 302 303 305 303 296 299 300 291 291 290 289 289 290 287 288 286
10 358 348 341 336 332 333 333 334 336 343 341 334 331 333 299 309 322 323 314 305 302 299 295 296 294 291 287 287 286 287 291 294
359 351 344 340 337 336 338 335 339 338 341 340 342 334 307 316 325 312 326 299 304 310 299 296 303 304 305 301 298 295 290 290 297
353 350 347 342 340 337 338 338 338 336 334 330 328 317 311 315 316 322 303 316 305 310 309 307 312 300 293 301 304 306 294 296 295
352 345 342 338 336 335 334 333 335 333 327 325 321 320 317 315 306 306 306 305 308 306 307 308 297 302 302 297 294 295 286 286 300
Height
1502 1502 1501 1502 1501 1500 1500 1500 1501 1502 1502 1502 1500 1501 1500 1499 1499 1499 1500 1501 1501 1501 1499 1500 1501 1501 1501 1502 1501 1502 1502 1502 1502
1502 1501 1501 1501 1501 1500 1499 1499 1500 1500 1500 1500 1500 1499 1499 1498 1498 1497 1498 1497 1498 1498 1498 1497 1497 1498 1498 1498 1498 1498 1499 1499 1499
1501 1501 1500 1500 1500 1499 1499 1499 1499 1499 1498 1498 1498 1497 1496 1496 1495 1494 1494 1494 1495 1494 1494 1494 1494 1494 1494 1495 1495 1495 1495 1495 1496
1500 1500 1500 1500 1499 1499 1498 1498 1498 1498 1497 1497 1496 1496 1495 1494 1493 1492 1492 1491 1491 1491 1491 1491 1491 1491 1490 1492 1491 1491 1491 1492 1492
1499 1499 1499 1499 1499 1498 1498 1498 1497 1496 1496 1496 1495 1494 1493 1492 1491 1491 1490 1489 1489 1488 1488 1487 1487 1486 1486 1486 1487 1487 1487 1487 1487
1499 1499 1498 1499 1498 1497 1497 1497 1496 1496 1495 1494 1493 1492 1491 1491 1490 1488 1487 1488 1487 1487 1485 1484 1483 1482 1482 1482 1482 1483 1483 1483 1483
1499 1499 1499 1498 1497 1497 1496 1496 1495 1494 1493 1493 1491 1490 1489 1488 1487 1486 1487 1486 1485 1484 1482 1481 1479 1478 1477 1477 1476 1477 1477 1478 1478
1498 1498 1497 1497 1496 1495 1495 1494 1494 1492 1491 1490 1490 1489 1487 1487 1487 1486 1485 1484 1482 1480 1479 1477 1475 1473 1472 1471 1471 1470 1470 1471 1471
1497 1498 1498 1497 1495 1494 1494 1494 1493 1492 1492 1490 1489 1487 1487 1485 1484 1482 1481 1480 1478 1476 1474 1472 1470 1468 1467 1465 1465 1464 1464 1464 1465
1497 1497 1497 1496 1495 1494 1493 1493 1492 1491 1490 1488 1487 1485 1484 1482 1480 1478 1477 1474 1473 1471 1470 1467 1465 1463 1461 1460 1459 1458 1457 1457 1457
1495 1495 1495 1495 1494 1493 1492 1490 1489 1487 1485 1484 1483 1481 1480 1478 1476 1474 1472 1470 1468 1466 1464 1462 1460 1458 1456 1454 1452 1451 1450 1449 1448
1493 1493 1494 1493 1491 1490 1489 1488 1486 1484 1482 1480 1478 1477 1475 1472 1470 1468 1467 1464 1462 1461 1459 1458 1455 1453 1451 1449 1446 1444 1442 1441 1440
1490 1490 1490 1490 1489 1488 1486 1484 1483 1481 1479 1476 1474 1472 1469 1467 1465 1463 1460 1459 1457 1456 1454 1451 1449 1447 1444 1442 1440 1437 1435 1433 1432
1487 1487 1488 1487 1486 1485 1484 1482 1479 1477 1474 1471 1469 1467 1465 1462 1459 1457 1455 1452 1451 1449 1447 1445 1443 1441 1439 1436 1433 1430 1428 1425 1424
1486 1486 1486 1485 1484 1482 1480 1478 1476 1473 1470 1466 1463 1460 1458 1455 1454 1451 1449 1448 1446 1443 1440 1438 1435 1433 1432 1429 1426 1424 1421 1418 1415
1486 1485 1485 1484 1481 1479 1477 1474 1471 1469 1466 1460 1456 1454 1453 1452 1448 1447 1445 1443 1440 1438 1435 1432 1430 1427 1425 1422 1419 1416 1414 1410 1407
1485 1484 1483 1481 1479 1476 1474 1471 1468 1466 1464 1459 1454 1448 1445 1446 1446 1441 1440 1436 1434 1433 1430 1427 1424 1421 1417 1414 1411 1408 1405 1401 1398
1484 1483 1481 1478 1476 1473 1470 1468 1466 1462 1461 1460 1459 1452 1446 1440 1436 1435 1434 1432 1429 1426 1424 1421 1417 1413 1409 1406 1403 1400 1397 1393 1390
1483 1480 1477 1475 1472 1470 1468 1466 1464 1461 1458 1457 1457 1455 1451 1444 1428 1428 1427 1424 1421 1417 1415 1412 1409 1406 1403 1399 1396 1393 1388 1384 1381
1479 1477 1475 1472 1470 1467 1465 1463 1461 1459 1457 1454 1451 1448 1445 1442 1436 1418 1417 1416 1414 1411 1408 1405 1402 1397 1395 1390 1388 1383 1378 1374 1371